User: anonymous   Login
Location: Newark
(43.0000°N, 1.6781°W)
Time: 08:33:29
(UTC+00:00)
Language:

Altair - Orbit

View from above orbital plane
View from above orbital plane
View from above satellite
View from above satellite

Ground track
Ground track

The orbit data is extracted from the following two-line orbital elements,

1 00050U 60009B   22279.29475517 -.00000023  00000-0  58201-3 0  9997
2 00050  47.2342  31.5674 0113444 311.4879  47.6217 12.20122422772882
Epoch (UTC): 06 October 2022 07:04:26
Eccentricity: 0.0113444
inclination: 47.2342°
perigee height: 1501 km
apogee height: 1682 km
right ascension of ascending node: 31.5674°
argument of perigee: 311.4879°
revolutions per day: 12.20122422
mean anomaly at epoch: 47.6217°
orbit number at epoch: 77288

The dashed part of the orbit path shows where the satellite is in the earth's shadow,  

DLR